Location: Monrovia
(34.7865°N, 86.7139°W)
Time: 00:45:42
(UTC+00:00)

BREEZE M DEB (TANK) - Pass Details

Date: 14 July 2020
Orbit: 326 x 16145 km, 49.4° (Epoch: 12 August)

Event Time Altitude Azimuth Distance (km) Brightness Sun altitude
Rises 02:26:15 0° 228° (SW) 2,367 5.7 -15.3°
Reaches altitude 10° 02:27:35 10° 227° (SW) 1,732 4.9 -15.5°
Maximum altitude 02:30:56 85° 138° (SE) 863 3.2 -16.0°
Drops below altitude 10° 02:42:17 10° 52° (NE) 5,556 7.3 -17.7°
Sets 02:50:42 0° 53° (NE) 8,772 8.3 -18.9°
